Flag for Germany Weather past 2 weeks in Geislingen an der Steige, Baden-Württemberg, Germany

Now
72 °F

Passing clouds.


Feels Like: 76 °F
Forecast: 63 / 90 °F
Wind: 5 mph from Southeast

Location: Stoetten

Current Time: Jul 3, 2015 at 1:24:04 AM

Latest Report: Jul 3, 2015 at 1:00 AM


Visibility: 19 mi

Pressure: 30.17 "Hg

Humidity: 63%

Dew point: 59 °F

Location of Geislingen an der SteigeLocation

Historic Weather in Geislingen an der Steige — Graph

°F

Geislingen an der Steige temperature yesterday

Maximum temperature yesterday: 83 °F (at 5:00 PM)
Minimum temperature yesterday: 67 °F (at 7:00 AM)
Average temperature yesterday: 75 °F

Past Weeks' High & Low Weather Summary

 TemperatureHumidityPressure
High83 °F (Jul 2, 5:00 PM)100% (Jun 18, 4:00 PM)30.23 "Hg (Jun 18, 4:00 PM)
Low44 °F (Jun 21, 2:00 AM)35% (Jun 30, 4:00 PM)29.74 "Hg (Jun 22, 10:00 PM)
Average59 °F74%30.09 "Hg
* Reported Jun 17 11:00 PM — Jul 2 11:00 PM, Geislingen an der Steige, Weather by CustomWeather, © 2015

Note: Actual official high and low records may vary slightly from our data, if they occured in-between our weather recording intervals... More about our weather records

Advertising

Geislingen an der Steige weather history for previous 24 hours

 ConditionsComfort  
Time TempWeatherWind HumidityBarometerVisibility
11:00 PM
Thu, Jul 2
74 °FClear.5 mph59%30.16 "Hg19 mi
10:00 PM75 °FClear.5 mph58%30.14 "Hg19 mi
9:00 PM78 °FSunny.3 mph53%30.11 "Hg43 mi
8:00 PM80 °FSunny.3 mph50%30.10 "Hg43 mi
7:00 PM82 °FSunny.3 mph48%30.08 "Hg43 mi
6:00 PM83 °FSunny.3 mph45%30.08 "Hg43 mi
5:00 PM83 °FSunny.3 mph46%30.08 "Hg43 mi
4:00 PM83 °FSunny.3 mph47%30.08 "Hg43 mi
3:00 PM82 °FSunny.3 mph47%30.09 "Hg43 mi
2:00 PM81 °FSunny.5 mph49%30.09 "Hg43 mi
1:00 PM80 °FPassing clouds.5 mph48%30.11 "Hg43 mi
12:00 PM78 °FPassing clouds.3 mph45%30.11 "Hg43 mi
11:00 AM76 °FPassing clouds.5 mph56%30.11 "Hg43 mi
10:00 AM74 °FPassing clouds.6 mph61%30.12 "Hg43 mi
9:00 AM71 °FPassing clouds.5 mph65%30.13 "Hg43 mi
8:00 AM70 °FPassing clouds.3 mph63%30.14 "Hg43 mi
7:00 AM67 °FPassing clouds.3 mph66%30.14 "Hg43 mi
5:00 AM67 °FPassing clouds.5 mph63%30.13 "Hg19 mi
4:00 AM69 °FClear.5 mph62%30.12 "Hg19 mi
3:00 AM69 °FClear.5 mph62%30.11 "Hg19 mi
2:00 AM70 °FClear.5 mph63%30.11 "Hg19 mi
1:00 AM70 °FClear.5 mph65%30.11 "Hg19 mi
Weather by CustomWeather, © 2015

See weather overviewHow to use our weather pages